TimeCDT,TemperatureF,Dew PointF,Humidity,Sea Level PressureIn,VisibilityMPH,Wind Direction,Wind SpeedMPH,Gust SpeedMPH,PrecipitationIn,Events,Conditions,WindDirDegrees,DateUTC
12:05 AM,59.0,55.4,88,30.22,10.0,Calm,Calm,-,N/A,,Overcast,0,2012-10-12 05:05:00
12:25 AM,59.0,55.4,88,30.21,10.0,South,4.6,-,N/A,,Overcast,170,2012-10-12 05:25:00
12:45 AM,57.2,55.4,94,30.21,10.0,SSE,3.5,-,N/A,,Mostly Cloudy,160,2012-10-12 05:45:00
1:05 AM,57.2,55.4,94,30.20,10.0,SSE,3.5,-,N/A,,Overcast,160,2012-10-12 06:05:00
1:25 AM,57.2,55.4,94,30.21,10.0,Calm,Calm,-,N/A,,Overcast,0,2012-10-12 06:25:00
1:45 AM,57.2,55.4,94,30.21,10.0,Calm,Calm,-,N/A,,Overcast,0,2012-10-12 06:45:00
2:45 AM,59.0,57.2,94,30.20,10.0,SSE,3.5,-,N/A,,Overcast,150,2012-10-12 07:45:00
3:05 AM,59.0,57.2,94,30.19,10.0,Calm,Calm,-,N/A,,Overcast,0,2012-10-12 08:05:00
3:25 AM,59.0,57.2,94,30.19,10.0,Calm,Calm,-,N/A,,Overcast,0,2012-10-12 08:25:00
3:45 AM,59.0,57.2,94,30.18,10.0,South,3.5,-,N/A,,Overcast,170,2012-10-12 08:45:00
4:05 AM,59.0,57.2,94,30.18,10.0,Calm,Calm,-,N/A,,Overcast,0,2012-10-12 09:05:00
4:25 AM,59.0,57.2,94,30.18,10.0,Calm,Calm,-,N/A,,Overcast,0,2012-10-12 09:25:00
4:45 AM,59.0,57.2,94,30.18,10.0,Calm,Calm,-,N/A,,Mostly Cloudy,0,2012-10-12 09:45:00
5:05 AM,60.8,57.2,88,30.19,10.0,Calm,Calm,-,N/A,,Mostly Cloudy,0,2012-10-12 10:05:00
5:25 AM,60.8,57.2,88,30.20,10.0,Calm,Calm,-,N/A,,Overcast,0,2012-10-12 10:25:00
5:45 AM,62.6,59.0,88,30.20,10.0,Calm,Calm,-,N/A,,Overcast,0,2012-10-12 10:45:00
6:05 AM,62.6,59.0,88,30.21,10.0,Calm,Calm,-,N/A,,Overcast,0,2012-10-12 11:05:00
6:25 AM,62.6,59.0,88,30.21,10.0,South,5.8,-,N/A,,Mostly Cloudy,180,2012-10-12 11:25:00
6:45 AM,62.6,59.0,88,30.21,10.0,Calm,Calm,-,N/A,,Overcast,0,2012-10-12 11:45:00
7:05 AM,62.6,59.0,88,30.22,8.0,Calm,Calm,-,N/A,,Mostly Cloudy,0,2012-10-12 12:05:00
7:25 AM,60.8,59.0,94,30.23,7.0,SSE,3.5,-,N/A,,Mostly Cloudy,160,2012-10-12 12:25:00
7:45 AM,62.6,59.0,88,30.23,6.0,ESE,3.5,-,N/A,,Mostly Cloudy,110,2012-10-12 12:45:00
8:05 AM,64.4,60.8,88,30.24,8.0,South,3.5,-,N/A,,Overcast,170,2012-10-12 13:05:00
8:25 AM,64.4,60.8,88,30.24,9.0,South,3.5,-,N/A,,Overcast,170,2012-10-12 13:25:00
8:45 AM,66.2,62.6,88,30.25,10.0,NE,3.5,-,N/A,,Overcast,40,2012-10-12 13:45:00
9:05 AM,68.0,62.6,83,30.27,10.0,NNE,4.6,-,N/A,Thunderstorm,Mostly Cloudy,20,2012-10-12 14:05:00
9:45 AM,68.0,60.8,78,30.28,10.0,NNW,4.6,-,N/A,,Overcast,330,2012-10-12 14:45:00
10:05 AM,69.8,62.6,78,30.30,10.0,NNW,4.6,-,N/A,Thunderstorm,Mostly Cloudy,340,2012-10-12 15:05:00
10:25 AM,68.0,62.6,83,30.30,10.0,NNW,6.9,-,N/A,Thunderstorm,Overcast,340,2012-10-12 15:25:00
11:05 AM,69.8,62.6,78,30.30,10.0,North,5.8,-,N/A,,Overcast,10,2012-10-12 16:05:00
11:25 AM,69.8,62.6,78,30.30,10.0,Calm,Calm,-,N/A,,Overcast,0,2012-10-12 16:25:00
11:45 AM,71.6,62.6,73,30.30,10.0,Calm,Calm,-,N/A,,Overcast,0,2012-10-12 16:45:00
12:05 PM,71.6,62.6,73,30.29,10.0,Calm,Calm,-,N/A,,Scattered Clouds,0,2012-10-12 17:05:00
12:25 PM,73.4,62.6,69,30.28,10.0,WSW,3.5,-,N/A,,Scattered Clouds,240,2012-10-12 17:25:00
12:45 PM,73.4,62.6,69,30.27,10.0,Calm,Calm,-,N/A,,Overcast,0,2012-10-12 17:45:00
1:25 PM,73.4,62.6,69,30.26,10.0,Calm,Calm,-,N/A,,Overcast,0,2012-10-12 18:25:00
2:25 PM,77.0,64.4,65,30.23,10.0,SSW,4.6,-,N/A,,Scattered Clouds,210,2012-10-12 19:25:00
3:05 PM,77.0,64.4,65,30.22,10.0,SW,8.1,-,N/A,,Clear,230,2012-10-12 20:05:00
3:45 PM,77.0,64.4,65,30.22,10.0,SSE,3.5,-,N/A,,Mostly Cloudy,150,2012-10-12 20:45:00
4:05 PM,77.0,64.4,65,30.22,10.0,Calm,Calm,-,N/A,,Overcast,0,2012-10-12 21:05:00
4:25 PM,77.0,64.4,65,30.22,10.0,Calm,Calm,-,N/A,,Overcast,0,2012-10-12 21:25:00
4:45 PM,77.0,64.4,65,30.22,10.0,Calm,Calm,-,N/A,,Overcast,0,2012-10-12 21:45:00
5:05 PM,75.2,64.4,69,30.21,10.0,NE,4.6,-,N/A,,Mostly Cloudy,50,2012-10-12 22:05:00
5:25 PM,75.2,66.2,73,30.21,10.0,NE,3.5,-,N/A,,Mostly Cloudy,50,2012-10-12 22:25:00
6:05 PM,73.4,64.4,73,30.21,10.0,NE,6.9,-,N/A,,Overcast,40,2012-10-12 23:05:00
6:45 PM,69.8,64.4,83,30.22,10.0,NE,3.5,-,N/A,,Mostly Cloudy,40,2012-10-12 23:45:00
7:05 PM,68.0,64.4,88,30.22,10.0,NE,4.6,-,N/A,,Scattered Clouds,50,2012-10-13 00:05:00
7:25 PM,68.0,64.4,88,30.22,10.0,NE,5.8,-,N/A,,Clear,40,2012-10-13 00:25:00
8:05 PM,66.2,64.4,94,30.23,9.0,NE,3.5,-,N/A,,Clear,40,2012-10-13 01:05:00
8:25 PM,66.2,62.6,88,30.23,7.0,NE,3.5,-,N/A,,Mostly Cloudy,50,2012-10-13 01:25:00
8:45 PM,66.2,62.6,88,30.23,6.0,Calm,Calm,-,N/A,,Mostly Cloudy,0,2012-10-13 01:45:00
9:05 PM,66.2,62.6,88,30.24,5.0,North,4.6,-,N/A,,Mostly Cloudy,10,2012-10-13 02:05:00
9:25 PM,64.4,62.6,94,30.24,5.0,NNE,4.6,-,N/A,,Overcast,30,2012-10-13 02:25:00
9:45 PM,66.2,64.4,94,30.24,3.0,ENE,4.6,-,N/A,,Overcast,70,2012-10-13 02:45:00
10:05 PM,66.2,64.4,94,30.24,3.0,East,3.5,-,N/A,,Overcast,80,2012-10-13 03:05:00
10:25 PM,66.2,64.4,94,30.24,3.0,NE,3.5,-,N/A,,Overcast,50,2012-10-13 03:25:00
11:25 PM,66.2,64.4,94,30.23,3.0,Calm,Calm,-,N/A,,Overcast,0,2012-10-13 04:25:00
11:45 PM,66.2,64.4,94,30.23,3.0,Calm,Calm,-,N/A,,Overcast,0,2012-10-13 04:45:00